This is the latest recevied weather packets stored in our database for station/object JR4VEV-13. If no packets are shown the sender has not sent any weather packets the latest 1 day(s).
| Time | Temp. | Humidity | Pressure | Rain* | Wind** | Luminosity | Snow |
|---|---|---|---|---|---|---|---|
| 1778106759 | 13.89° C | 89% | 1016.5 hPa | 0 mm | - | - | - |
| 1778102557 | 11.67° C | 95% | 1016.7 hPa | 0 mm | - | - | - |
| 1778101357 | 11.11° C | 96% | 1016.8 hPa | 0 mm | - | - | - |
| 1778100757 | 11.11° C | 96% | 1016.9 hPa | 0 mm | - | - | - |
| 1778099558 | 11.11° C | 96% | 1016.6 hPa | 0 mm | - | - | - |
| 1778098020 | 10.56° C | 96% | 1016.5 hPa | 0 mm | - | - | - |
| 1778097757 | 10.56° C | 96% | 1016.4 hPa | 0 mm | - | - | - |
| 1778096558 | 10.56° C | 95% | 1016.4 hPa | 0 mm | - | - | - |
| 1778095958 | 11.11° C | 95% | 1016.4 hPa | 0 mm | - | - | - |
| 1778094158 | 11.11° C | 95% | 1016.8 hPa | 0 mm | - | - | - |
| 1778092957 | 11.11° C | 95% | 1016.8 hPa | 0 mm | - | - | - |
| 1778088758 | 11.11° C | 95% | 1017.1 hPa | 0 mm | - | - | - |
| 1778087558 | 11.11° C | 95% | 1017.1 hPa | 0 mm | - | - | - |
| 1778086957 | 11.11° C | 95% | 1017.1 hPa | 0 mm | - | - | - |
| 1778085158 | 11.67° C | 95% | 1017.2 hPa | 0 mm | - | - | - |
| 1778083957 | 11.67° C | 95% | 1017.3 hPa | 0 mm | - | - | - |
| 1778083357 | 11.67° C | 94% | 1017.5 hPa | 0 mm | - | - | - |
| 1778081557 | 11.67° C | 94% | 1017.8 hPa | 0 mm | - | - | - |
| 1778078557 | 12.22° C | 93% | 1018.5 hPa | 0 mm | - | - | - |
| 1778077958 | 12.22° C | 93% | 1018.4 hPa | 0 mm | - | - | - |
| 1778072557 | 13.33° C | 92% | 1018.1 hPa | 0 mm | - | - | - |
| 1778070759 | 13.89° C | 91% | 1017.8 hPa | 0 mm | - | - | - |
| 1778068960 | 14.44° C | 89% | 1017.7 hPa | 0 mm | - | - | - |
| 1778067760 | 15° C | 88% | 1017.6 hPa | 0 mm | - | - | - |
| 1778067159 | 15° C | 88% | 1017.8 hPa | 0 mm | - | - | - |
* Rain latest hour (hover to see other rain measurements)
** Current wind speed in m/s (hover to see current wind gust speed)